{"data":{"norad_id":51739,"epoch":"2026-05-24T19:47:19.354848Z","epoch_age_seconds":87336,"freshness":"FRESH","line1":"1 51739U 22016AB  26144.82452957 -.00000402  00000+0 -71902-5 0  9996","line2":"2 51739  53.2135 337.3388 0001150  86.0716 274.0407 15.08835761235059","mean_motion":15.08835761,"eccentricity":0.000115,"inclination_deg":53.2135,"raan_deg":337.3388,"arg_perigee_deg":86.0716,"mean_anomaly_deg":274.0407,"bstar":-7.1902e-6,"rev_number":23505,"period_min":95.43782280489,"perigee_km":538.96078818682,"apogee_km":540.55190365638,"semimajor_km":6917.8933459216,"source":"CELESTRAK","updated_at":"2026-05-25T13:38:16.924755Z"}}